Flag Weather past 2 weeks in Corvallis, Oregon, U.S.A.

Now
52 °F

Partly cloudy.


Feels Like: 47 °F
Forecast: 30 / 46 °F
Wind: 15 mph from Northwest

Location: Corvallis Municipal

Current Time: Nov 28, 2014 at 8:16:51 PM

Latest Report: Nov 28, 2014 at 7:15 PM


Visibility: 10 mi

Pressure: 29.58 "Hg

Humidity: 77%

Dew point: 45 °F

Location of CorvallisLocation

Historic Weather in Corvallis — Graph

°F

Corvallis temperature yesterday

Maximum temperature yesterday: 55 °F (at 6:55 AM)
Minimum temperature yesterday: 52 °F (at 12:35 AM)
Average temperature yesterday: 54 °F

Past Weeks' High & Low Weather Summary

 TemperatureHumidityPressure
High63 °F (Nov 25, 12:55 PM)100% (Nov 17, 7:55 AM)30.43 "Hg (Nov 17, 7:55 AM)
Low19 °F (Nov 17, 6:55 AM)34% (Nov 16, 3:15 PM)29.54 "Hg (Nov 21, 7:55 PM)
Average44 °F83%30.12 "Hg
* Reported Nov 13 6:15 PM — Nov 28 6:15 PM, Corvallis, Weather by CustomWeather, © 2014

Note: Actual official high and low records may vary slightly from our data, if they occured in-between our weather recording intervals... More about our weather records

Advertising

Corvallis weather history for previous 24 hours

 ConditionsComfort  
Time TempWeatherWind HumidityBarometerVisibility
6:15 PM
Nov 28
55 °FPartly cloudy.3 mph88%29.57 "Hg10 mi
5:55 PM55 °FPartly cloudy.9 mph88%29.56 "Hg7 mi
5:35 PM55 °FOvercast.10 mph88%29.56 "Hg8 mi
5:15 PM57 °FMostly cloudy.9 mph82%29.56 "Hg10 mi
4:55 PM57 °FMostly cloudy.8 mph82%29.56 "Hg10 mi
4:35 PM57 °FMostly cloudy.12 mph82%29.56 "Hg10 mi
3:55 PM57 °FMostly cloudy.10 mph77%29.57 "Hg9 mi
3:35 PM57 °FMostly cloudy.12 mph82%29.57 "Hg10 mi
3:15 PM57 °FMostly cloudy.14 mph77%29.57 "Hg10 mi
2:55 PM59 °FCloudy.14 mph77%29.57 "Hg10 mi
2:35 PM59 °FMostly cloudy.13 mph82%29.58 "Hg10 mi
2:15 PM59 °FMore clouds than sun.15 mph77%29.58 "Hg10 mi
1:55 PM57 °FMostly cloudy.17 mph82%29.58 "Hg9 mi
1:35 PM57 °FMostly cloudy.21 mph82%29.58 "Hg10 mi
12:55 PM55 °FMostly cloudy.16 mph88%29.60 "Hg10 mi
12:35 PM55 °FMore clouds than sun.16 mph88%29.59 "Hg7 mi
12:15 PM55 °FBroken clouds.12 mph82%29.61 "Hg9 mi
11:55 AM55 °FBroken clouds.13 mph82%29.62 "Hg4 mi
11:35 AM55 °FCloudy.13 mph82%29.63 "Hg9 mi
11:15 AM55 °FOvercast.13 mph82%29.65 "Hg10 mi
10:55 AM55 °FCloudy.14 mph82%29.65 "Hg10 mi
10:35 AM55 °FMostly cloudy.18 mph82%29.66 "Hg10 mi
10:15 AM55 °FMostly cloudy.20 mph82%29.66 "Hg10 mi
9:55 AM55 °FMore clouds than sun.16 mph82%29.67 "Hg10 mi
9:35 AM55 °FMore clouds than sun.16 mph77%29.68 "Hg10 mi
9:15 AM55 °FMostly cloudy.14 mph82%29.68 "Hg10 mi
8:55 AM55 °FMostly cloudy.12 mph77%29.69 "Hg10 mi
8:35 AM55 °FOvercast.13 mph77%29.69 "Hg10 mi
8:15 AM55 °FOvercast.12 mph77%29.69 "Hg10 mi
7:55 AM55 °FMostly cloudy.14 mph77%29.69 "Hg10 mi
7:35 AM55 °FMostly cloudy.14 mph77%29.70 "Hg10 mi
7:15 AM55 °FOvercast.13 mph77%29.71 "Hg10 mi
6:55 AM54 °FMostly cloudy.13 mph82%29.71 "Hg10 mi
6:35 AM54 °FOvercast.15 mph82%29.71 "Hg9 mi
5:55 AM54 °FMostly cloudy.15 mph88%29.72 "Hg5 mi
5:35 AM55 °FPartly cloudy.14 mph82%29.73 "Hg3 mi
5:15 AM55 °FMostly cloudy.8 mph82%29.74 "Hg5 mi
4:55 AM54 °FMostly cloudy.9 mph88%29.75 "Hg5 mi
4:35 AM54 °FOvercast.10 mph88%29.75 "Hg5 mi
4:15 AM54 °FOvercast.8 mph88%29.75 "Hg10 mi
3:55 AM54 °FMostly cloudy.7 mph88%29.76 "Hg7 mi
3:35 AM54 °FMostly cloudy.9 mph88%29.77 "Hg8 mi
2:55 AM54 °FMostly cloudy.3 mph88%29.79 "Hg10 mi
2:35 AM54 °FMostly cloudy.9 mph88%29.79 "Hg10 mi
2:15 AM54 °FOvercast.7 mph88%29.79 "Hg9 mi
1:55 AM54 °FMostly cloudy.7 mph82%29.80 "Hg10 mi
1:35 AM54 °FOvercast.5 mph88%29.80 "Hg8 mi
1:15 AM54 °FOvercast.5 mph88%29.81 "Hg8 mi
12:55 AM54 °FOvercast.6 mph88%29.82 "Hg10 mi
12:35 AM54 °FOvercast.6 mph88%29.83 "Hg5 mi
12:15 AM54 °FOvercast.7 mph88%29.84 "Hg8 mi
11:55 PM
Nov 27
54 °FOvercast.5 mph88%29.85 "Hg8 mi
11:35 PM54 °FOvercast.3 mph88%29.86 "Hg9 mi
11:15 PM54 °FOvercast.3 mph88%29.86 "Hg10 mi
10:55 PM54 °FOvercast.7 mph88%29.86 "Hg9 mi
10:35 PM54 °FMostly cloudy.6 mph88%29.86 "Hg7 mi
10:15 PM54 °FMostly cloudy.8 mph88%29.87 "Hg5 mi
9:55 PM54 °FMostly cloudy.12 mph82%29.88 "Hg9 mi
9:35 PM54 °FMostly cloudy.9 mph88%29.88 "Hg10 mi
9:15 PM54 °FMostly cloudy.8 mph82%29.89 "Hg5 mi
8:55 PM54 °FOvercast.8 mph88%29.89 "Hg8 mi
8:35 PM54 °FOvercast.9 mph82%29.90 "Hg5 mi
8:15 PM54 °FMostly cloudy.10 mph82%29.91 "Hg10 mi
Weather by CustomWeather, © 2014

See weather overviewHow to use our weather pages